Location: Unspecified
(0.0000°N, 0.0000°E)
Time: 09:07:53
(UTC+00:00)

Courier 1B Rocket - Pass Details

Date: 21 December 2018
Orbit: 920 x 1202 km, 28.2° (Epoch: 22 March)

Event Time Altitude Azimuth Distance (km) Brightness Sun altitude
Rises 17:13:18 0° 265° (W) 4,041 9.8 10.3°
Reaches altitude 10° 17:16:59 10° 249° (WSW) 3,107 11.5 9.4°
Maximum altitude 17:22:24 20° 204° (SSW) 2,446 8.0 8.2°
Drops below altitude 10° 17:27:53 10° 159° (SSE) 3,129 7.7 6.9°
Sets 17:31:38 0° 143° (SE) 4,076 8.1 6.1°
